Home   Weather   Linz   Past weeks

Flag for Austria Past Weather in Linz, Upper Austria, Austria — Yesterday and Last 2 Weeks

Now
68 °F

Broken clouds.


Feels Like: 68 °F
Forecast: 53 / 77 °F
Wind: 2 mph from North

Location: Linz / Hoersching-Flughafen

Current Time: Aug 30, 2016 at 11:33:57 AM

Latest Report: Aug 30, 2016 at 10:50 AM


Visibility: N/A

Pressure: 30.27 "Hg

Humidity: 73%

Dew Point: 59 °F

Location of LinzLocation

Past Weather in Linz — Graph

°F

Linz Temperature Yesterday

Maximum temperature yesterday: 75 °F (at 12:50 PM)
Minimum temperature yesterday: 64 °F (at 9:20 PM)
Average temperature yesterday: 69 °F

High & Low Weather Summary for the Past Weeks

 TemperatureHumidityPressure
High90 °F (Aug 28, 5:50 PM)100% (Aug 16, 2:50 AM)30.42 "Hg (Aug 16, 2:50 AM)
Low52 °F (Aug 23, 5:50 AM)30% (Aug 20, 5:20 PM)29.80 "Hg (Aug 18, 4:20 PM)
Average68 °F72%30.10 "Hg
* Reported Aug 15 10:20 AM — Aug 30 10:20 AM, Linz, Weather by CustomWeather, © 2016

Note: Actual official high and low records may vary slightly from our data, if they occured in-between our weather recording intervals... More about our weather records

Advertising

Linz Weather History for the Previous 24 Hours

Scroll right to see more
 ConditionsComfort  
Time TempWeatherWind HumidityBarometerVisibility
10:20 AM
Tue, Aug 30
68 °FBroken clouds.2 mph78%30.27 "HgN/A
9:50 AM66 °FPartly sunny.2 mph88%30.24 "HgN/A
9:20 AM64 °FPartly sunny.2 mph94%30.24 "Hg4 mi
8:50 AM64 °FPartly sunny.2 mph88%30.24 "Hg4 mi
8:20 AM64 °FFog.1 mph94%30.21 "Hg2 mi
7:50 AM64 °FFog.5 mph94%30.21 "Hg2 mi
7:20 AM63 °FFog.1 mph94%30.21 "Hg2 mi
6:50 AM63 °FPartly cloudy.1 mph94%30.21 "Hg5 mi
6:20 AM61 °FFog.1 mph100%30.18 "Hg5 mi
5:50 AM61 °FPassing clouds.2 mph100%30.18 "Hg5 mi
5:20 AM63 °FPartly cloudy.5 mph94%30.18 "Hg4 mi
4:50 AM63 °FPartly cloudy.3 mph94%30.18 "Hg4 mi
4:20 AM63 °FPartly cloudy.1 mph94%30.18 "Hg6 mi
3:50 AM63 °FPassing clouds.2 mph94%30.18 "HgN/A
3:20 AM63 °FPassing clouds.1 mph94%30.18 "Hg6 mi
2:50 AM63 °FPassing clouds.2 mph94%30.18 "Hg5 mi
2:20 AM63 °FPassing clouds.3 mph94%30.18 "Hg6 mi
1:50 AM63 °FPassing clouds.1 mph94%30.18 "HgN/A
1:20 AM63 °FPassing clouds.3 mph94%30.18 "HgN/A
12:50 AM64 °FPassing clouds.5 mph88%30.18 "HgN/A
12:20 AM64 °FPassing clouds.2 mph94%30.15 "HgN/A
11:50 PM
Mon, Aug 29
64 °FPassing clouds.3 mph94%30.18 "HgN/A
11:20 PM64 °FPartly cloudy.3 mph94%30.18 "HgN/A
10:50 PM64 °FPassing clouds.2 mph88%30.18 "HgN/A
10:20 PM64 °FPassing clouds.2 mph94%30.15 "HgN/A
9:50 PM66 °FPassing clouds.5 mph88%30.15 "HgN/A
9:20 PM64 °FPassing clouds.3 mph88%30.15 "HgN/A
8:50 PM66 °FPassing clouds.5 mph88%30.12 "HgN/A
8:20 PM68 °FPartly sunny.5 mph83%30.12 "HgN/A
7:50 PM68 °FBroken clouds.3 mph83%30.12 "HgN/A
7:20 PM70 °FBroken clouds.5 mph78%30.12 "HgN/A
6:50 PM70 °FBroken clouds.6 mph78%30.09 "HgN/A
6:20 PM70 °FBroken clouds.7 mph78%30.09 "HgN/A
5:50 PM70 °FPartly sunny.9 mph78%30.12 "HgN/A
5:20 PM70 °FPartly sunny.10 mph83%30.09 "HgN/A
4:50 PM70 °FBroken clouds.9 mph83%30.12 "HgN/A
4:20 PM70 °FPartly sunny.8 mph83%30.12 "HgN/A
3:50 PM70 °FRain showers. Partly sunny.9 mph83%30.12 "HgN/A
3:20 PM70 °FBroken clouds.6 mph83%30.09 "HgN/A
2:50 PM72 °FBroken clouds.12 mph73%30.09 "HgN/A
2:20 PM73 °FBroken clouds.10 mph69%30.12 "HgN/A
1:50 PM73 °FBroken clouds.7 mph69%30.09 "HgN/A
1:20 PM73 °FScattered showers. Broken clouds.9 mph69%30.12 "HgN/A
12:50 PM75 °FBroken clouds.13 mph65%30.12 "HgN/A
12:20 PM73 °FBroken clouds.8 mph69%30.09 "HgN/A
11:50 AM73 °FBroken clouds.6 mph65%30.09 "HgN/A
11:20 AM72 °FPartly sunny.6 mph73%30.09 "HgN/A
Weather by CustomWeather, © 2016

See weather overviewHow to use our weather pages